,,PressureMeas_1m,,PRMeasQMR101_1,,RHStat155_1m_1,,SRMeasQMS101R_1m,,TAStat155_1m_1,,GenWind_1,,GenWind_1,
2017-08-11, 00:00:06,VALID,918.635,VALID,0.0,VALID,96.724,VALID,-0.006,VALID,20.502,VALID,356.0,VALID,1.004,
2017-08-11, 00:01:06,VALID,918.644,VALID,0.0,VALID,96.736,VALID,-0.006,VALID,20.5,VALID,13.0,VALID,1.15,
2017-08-11, 00:02:06,VALID,918.652,VALID,0.0,VALID,96.695,VALID,0.013,VALID,20.483,VALID,19.0,VALID,1.758,
2017-08-11, 00:03:06,VALID,918.681,VALID,0.0,VALID,96.731,VALID,-0.001,VALID,20.501,VALID,345.0,VALID,0.671,
2017-08-11, 00:04:06,VALID,918.691,VALID,0.0,VALID,96.72,VALID,0.004,VALID,20.51,VALID,349.0,VALID,0.595,
2017-08-11, 00:05:06,VALID,918.706,VALID,0.0,VALID,96.72,VALID,0.006,VALID,20.511,VALID,4.0,VALID,0.492,
2017-08-11, 00:06:06,VALID,918.729,VALID,0.0,VALID,96.635,VALID,-0.004,VALID,20.513,VALID,334.0,VALID,1.008,
2017-08-11, 00:07:06,VALID,918.742,VALID,0.0,VALID,96.456,VALID,-0.001,VALID,20.511,VALID,335.0,VALID,0.714,
2017-08-11, 00:08:06,VALID,918.777,VALID,0.0,VALID,96.419,VALID,-0.018,VALID,20.528,VALID,346.0,VALID,0.704,
2017-08-11, 00:09:06,VALID,918.791,VALID,0.0,VALID,96.351,VALID,0.002,VALID,20.529,VALID,357.0,VALID,0.418,
2017-08-11, 00:10:06,VALID,918.813,VALID,0.0,VALID,96.271,VALID,0.004,VALID,20.537,VALID,343.0,VALID,0.381,
2017-08-11, 00:11:06,VALID,918.832,VALID,0.0,VALID,96.066,VALID,-0.007,VALID,20.544,VALID,344.0,VALID,0.302,
2017-08-11, 00:12:06,VALID,918.849,VALID,0.0,VALID,95.939,VALID,0.005,VALID,20.565,VALID,343.0,VALID,0.062,
2017-08-11, 00:13:06,VALID,918.868,VALID,0.0,VALID,95.914,VALID,0.021,VALID,20.591,VALID,343.0,VALID,0.066,
2017-08-11, 00:14:06,VALID,918.878,VALID,0.0,VALID,95.807,VALID,0.026,VALID,20.597,VALID,343.0,VALID,0.0,
2017-08-11, 00:15:07,VALID,918.892,VALID,0.0,VALID,95.786,VALID,0.018,VALID,20.61,VALID,343.0,VALID,0.041,
2017-08-11, 00:16:07,VALID,918.906,VALID,0.0,VALID,95.718,VALID,0.016,VALID,20.607,VALID,344.0,VALID,0.304,
2017-08-11, 00:17:07,VALID,918.912,VALID,0.0,VALID,95.449,VALID,0.018,VALID,20.588,VALID,358.0,VALID,0.652,
2017-08-11, 00:18:07,VALID,918.919,VALID,0.0,VALID,95.327,VALID,0.019,VALID,20.567,VALID,14.0,VALID,0.577,
2017-08-11, 00:19:07,VALID,918.925,VALID,0.0,VALID,95.491,VALID,0.003,VALID,20.572,VALID,14.0,VALID,0.543,
2017-08-11, 00:20:07,VALID,918.911,VALID,0.0,VALID,95.409,VALID,0.028,VALID,20.577,VALID,6.0,VALID,0.369,
2017-08-11, 00:21:07,VALID,918.903,VALID,0.0,VALID,95.39,VALID,0.021,VALID,20.583,VALID,347.0,VALID,0.194,
2017-08-11, 00:22:07,VALID,918.891,VALID,0.0,VALID,95.204,VALID,0.008,VALID,20.583,VALID,345.0,VALID,0.251,
2017-08-11, 00:23:07,VALID,918.875,VALID,0.0,VALID,95.249,VALID,0.027,VALID,20.587,VALID,339.0,VALID,0.317,
2017-08-11, 00:24:07,VALID,918.856,VALID,0.0,VALID,95.256,VALID,0.032,VALID,20.589,VALID,337.0,VALID,0.379,
2017-08-11, 00:25:07,VALID,918.851,VALID,0.0,VALID,95.209,VALID,0.007,VALID,20.577,VALID,342.0,VALID,0.433,
2017-08-11, 00:26:07,VALID,918.838,VALID,0.0,VALID,95.262,VALID,0.004,VALID,20.551,VALID,343.0,VALID,0.463,
2017-08-11, 00:27:07,VALID,918.834,VALID,0.0,VALID,95.3,VALID,0.01,VALID,20.53,VALID,349.0,VALID,0.356,
2017-08-11, 00:28:07,VALID,918.812,VALID,0.0,VALID,95.359,VALID,0.017,VALID,20.522,VALID,356.0,VALID,0.354,
2017-08-11, 00:29:07,VALID,918.813,VALID,0.0,VALID,95.17,VALID,0.012,VALID,20.502,VALID,355.0,VALID,0.721,
2017-08-11, 00:30:07,VALID,918.791,VALID,0.0,VALID,94.958,VALID,0.001,VALID,20.478,VALID,11.0,VALID,0.59,
2017-08-11, 00:31:07,VALID,918.776,VALID,0.0,VALID,95.022,VALID,0.006,VALID,20.462,VALID,356.0,VALID,0.593,
2017-08-11, 00:32:07,VALID,918.765,VALID,0.0,VALID,94.913,VALID,0.0,VALID,20.445,VALID,358.0,VALID,0.591,
2017-08-11, 00:33:07,VALID,918.743,VALID,0.0,VALID,94.982,VALID,0.016,VALID,20.435,VALID,353.0,VALID,0.564,
2017-08-11, 00:34:07,VALID,918.719,VALID,0.0,VALID,94.955,VALID,0.0,VALID,20.422,VALID,356.0,VALID,0.625,
2017-08-11, 00:35:07,VALID,918.712,VALID,0.0,VALID,94.964,VALID,0.003,VALID,20.427,VALID,351.0,VALID,0.663,
2017-08-11, 00:36:07,VALID,918.702,VALID,0.0,VALID,94.893,VALID,0.01,VALID,20.421,VALID,3.0,VALID,0.529,
2017-08-11, 00:37:07,VALID,918.694,VALID,0.0,VALID,94.891,VALID,0.015,VALID,20.413,VALID,1.0,VALID,0.665,
2017-08-11, 00:38:07,VALID,918.707,VALID,0.0,VALID,94.94,VALID,0.012,VALID,20.411,VALID,354.0,VALID,0.428,
2017-08-11, 00:39:07,VALID,918.71,VALID,0.0,VALID,94.927,VALID,0.023,VALID,20.394,VALID,353.0,VALID,0.525,
2017-08-11, 00:40:07,VALID,918.726,VALID,0.0,VALID,94.861,VALID,-0.008,VALID,20.38,VALID,349.0,VALID,0.597,
2017-08-11, 00:41:07,VALID,918.716,VALID,0.0,VALID,94.825,VALID,-0.036,VALID,20.379,VALID,342.0,VALID,0.487,
2017-08-11, 00:42:07,VALID,918.73,VALID,0.0,VALID,94.858,VALID,-0.029,VALID,20.377,VALID,339.0,VALID,0.429,
2017-08-11, 00:43:07,VALID,918.721,VALID,0.0,VALID,94.84,VALID,-0.036,VALID,20.375,VALID,341.0,VALID,0.428,
2017-08-11, 00:44:07,VALID,918.723,VALID,0.0,VALID,94.903,VALID,-0.036,VALID,20.371,VALID,341.0,VALID,0.472,
2017-08-11, 00:45:07,VALID,918.7,VALID,0.0,VALID,94.819,VALID,-0.027,VALID,20.359,VALID,344.0,VALID,0.359,
2017-08-11, 00:46:07,VALID,918.7,VALID,0.0,VALID,94.836,VALID,-0.025,VALID,20.353,VALID,343.0,VALID,0.4,
2017-08-11, 00:47:07,VALID,918.685,VALID,0.0,VALID,94.692,VALID,-0.024,VALID,20.334,VALID,348.0,VALID,0.48,
2017-08-11, 00:48:07,VALID,918.663,VALID,0.0,VALID,94.593,VALID,-0.029,VALID,20.308,VALID,354.0,VALID,0.466,
2017-08-11, 00:49:07,VALID,918.66,VALID,0.0,VALID,94.609,VALID,-0.035,VALID,20.302,VALID,351.0,VALID,0.217,
2017-08-11, 00:50:07,VALID,918.633,VALID,0.0,VALID,94.528,VALID,-0.051,VALID,20.304,VALID,350.0,VALID,0.28,
2017-08-11, 00:51:07,VALID,918.622,VALID,0.0,VALID,94.403,VALID,-0.057,VALID,20.306,VALID,348.0,VALID,0.242,
2017-08-11, 00:52:07,VALID,918.608,VALID,0.0,VALID,94.025,VALID,-0.028,VALID,20.3,VALID,344.0,VALID,0.214,
2017-08-11, 00:53:07,VALID,918.589,VALID,0.0,VALID,93.854,VALID,-0.017,VALID,20.295,VALID,343.0,VALID,0.199,
2017-08-11, 00:54:07,VALID,918.556,VALID,0.0,VALID,93.326,VALID,-0.013,VALID,20.287,VALID,343.0,VALID,0.432,
2017-08-11, 00:55:07,VALID,918.541,VALID,0.0,VALID,92.841,VALID,-0.011,VALID,20.295,VALID,342.0,VALID,0.364,
2017-08-11, 00:56:07,VALID,918.517,VALID,0.0,VALID,92.581,VALID,0.003,VALID,20.306,VALID,341.0,VALID,0.344,
2017-08-11, 00:57:07,VALID,918.498,VALID,0.0,VALID,92.049,VALID,-0.004,VALID,20.315,VALID,346.0,VALID,0.401,
2017-08-11, 00:58:07,VALID,918.467,VALID,0.0,VALID,91.984,VALID,-0.006,VALID,20.327,VALID,6.0,VALID,0.412,
2017-08-11, 00:59:07,VALID,918.448,VALID,0.0,VALID,91.757,VALID,-0.004,VALID,20.33,VALID,8.0,VALID,0.16,
2017-08-11, 01:00:07,VALID,918.43,VALID,0.0,VALID,91.807,VALID,0.007,VALID,20.331,VALID,348.0,VALID,0.258,
2017-08-11, 01:01:07,VALID,918.397,VALID,0.0,VALID,91.817,VALID,0.001,VALID,20.354,VALID,314.0,VALID,0.022,
2017-08-11, 01:02:07,VALID,918.367,VALID,0.0,VALID,91.882,VALID,-0.013,VALID,20.366,VALID,311.0,VALID,0.0,
2017-08-11, 01:03:07,VALID,918.336,VALID,0.0,VALID,91.69,VALID,-0.006,VALID,20.361,VALID,314.0,VALID,0.0,
2017-08-11, 01:04:07,VALID,918.316,VALID,0.0,VALID,91.729,VALID,0.009,VALID,20.361,VALID,319.0,VALID,0.0,
2017-08-11, 01:05:07,VALID,918.292,VALID,0.0,VALID,91.91,VALID,0.007,VALID,20.327,VALID,345.0,VALID,0.21,
2017-08-11, 01:06:07,VALID,918.274,VALID,0.0,VALID,91.865,VALID,0.004,VALID,20.301,VALID,12.0,VALID,0.28,
2017-08-11, 01:07:07,VALID,918.251,VALID,0.0,VALID,91.984,VALID,0.0,VALID,20.277,VALID,13.0,VALID,0.034,
2017-08-11, 01:08:07,VALID,918.234,VALID,0.0,VALID,92.137,VALID,-0.004,VALID,20.241,VALID,13.0,VALID,0.031,
2017-08-11, 01:09:07,VALID,918.205,VALID,0.0,VALID,92.186,VALID,0.004,VALID,20.198,VALID,18.0,VALID,0.113,
2017-08-11, 01:10:07,VALID,918.177,VALID,0.0,VALID,92.191,VALID,-0.011,VALID,20.159,VALID,22.0,VALID,0.008,
2017-08-11, 01:11:07,VALID,918.138,VALID,0.0,VALID,92.309,VALID,-0.026,VALID,20.122,VALID,22.0,VALID,0.0,
2017-08-11, 01:12:07,VALID,918.111,VALID,0.0,VALID,92.253,VALID,-0.006,VALID,20.109,VALID,22.0,VALID,0.0,
2017-08-11, 01:13:07,VALID,918.062,VALID,0.0,VALID,92.096,VALID,-0.023,VALID,20.078,VALID,22.0,VALID,0.0,
2017-08-11, 01:14:07,VALID,918.042,VALID,0.0,VALID,92.153,VALID,-0.023,VALID,20.043,VALID,22.0,VALID,0.0,
2017-08-11, 01:15:07,VALID,918.021,VALID,0.0,VALID,91.991,VALID,-0.015,VALID,20.01,VALID,22.0,VALID,0.0,
2017-08-11, 01:16:07,VALID,917.99,VALID,0.0,VALID,92.267,VALID,-0.004,VALID,19.951,VALID,22.0,VALID,0.0,
2017-08-11, 01:17:07,VALID,917.978,VALID,0.0,VALID,92.621,VALID,-0.003,VALID,19.905,VALID,22.0,VALID,0.0,
2017-08-11, 01:18:07,VALID,917.97,VALID,0.0,VALID,92.942,VALID,0.012,VALID,19.868,VALID,22.0,VALID,0.0,
2017-08-11, 01:19:07,VALID,917.958,VALID,0.0,VALID,93.268,VALID,0.009,VALID,19.815,VALID,22.0,VALID,0.0,
2017-08-11, 01:20:07,VALID,917.943,VALID,0.0,VALID,93.578,VALID,0.006,VALID,19.75,VALID,22.0,VALID,0.024,
2017-08-11, 01:21:07,VALID,917.914,VALID,0.0,VALID,93.662,VALID,-0.002,VALID,19.671,VALID,22.0,VALID,0.066,
2017-08-11, 01:22:07,VALID,917.891,VALID,0.0,VALID,93.561,VALID,-0.007,VALID,19.619,VALID,67.0,VALID,0.287,
2017-08-11, 01:23:07,VALID,917.85,VALID,0.0,VALID,93.627,VALID,-0.014,VALID,19.584,VALID,101.0,VALID,0.431,
2017-08-11, 01:24:07,VALID,917.827,VALID,0.0,VALID,93.907,VALID,-0.014,VALID,19.527,VALID,115.0,VALID,0.734,
2017-08-11, 01:25:07,VALID,917.803,VALID,0.0,VALID,94.146,VALID,0.005,VALID,19.452,VALID,114.0,VALID,0.881,
2017-08-11, 01:26:07,VALID,917.789,VALID,0.0,VALID,94.453,VALID,0.003,VALID,19.404,VALID,110.0,VALID,0.889,
2017-08-11, 01:27:07,VALID,917.786,VALID,0.0,VALID,94.614,VALID,0.011,VALID,19.367,VALID,107.0,VALID,0.876,
2017-08-11, 01:28:07,VALID,917.781,VALID,0.0,VALID,94.554,VALID,-0.004,VALID,19.314,VALID,109.0,VALID,0.969,
2017-08-11, 01:29:07,VALID,917.764,VALID,0.0,VALID,94.905,VALID,-0.001,VALID,19.275,VALID,120.0,VALID,0.979,
2017-08-11, 01:30:07,VALID,917.763,VALID,0.0,VALID,95.354,VALID,0.002,VALID,19.297,VALID,117.0,VALID,1.431,
2017-08-11, 01:31:07,VALID,917.749,VALID,0.0,VALID,96.099,VALID,-0.01,VALID,19.345,VALID,130.0,VALID,0.892,
2017-08-11, 01:32:07,VALID,917.731,VALID,0.0,VALID,96.184,VALID,-0.012,VALID,19.361,VALID,137.0,VALID,0.854,
2017-08-11, 01:33:07,VALID,917.718,VALID,0.0,VALID,96.589,VALID,-0.003,VALID,19.409,VALID,137.0,VALID,0.837,
2017-08-11, 01:34:07,VALID,917.721,VALID,0.0,VALID,96.96,VALID,-0.013,VALID,19.422,VALID,134.0,VALID,0.62,
2017-08-11, 01:35:07,VALID,917.723,VALID,0.0,VALID,97.063,VALID,-0.009,VALID,19.4,VALID,121.0,VALID,1.015,
2017-08-11, 01:36:07,VALID,917.733,VALID,0.0,VALID,97.188,VALID,0.004,VALID,19.385,VALID,114.0,VALID,1.221,
2017-08-11, 01:37:07,VALID,917.735,VALID,0.0,VALID,97.367,VALID,0.0,VALID,19.351,VALID,111.0,VALID,1.183,
2017-08-11, 01:38:07,VALID,917.729,VALID,0.0,VALID,97.477,VALID,0.003,VALID,19.316,VALID,113.0,VALID,1.346,
2017-08-11, 01:39:07,VALID,917.739,VALID,0.0,VALID,97.763,VALID,-0.0,VALID,19.366,VALID,116.0,VALID,1.57,
2017-08-11, 01:40:07,VALID,917.717,VALID,0.0,VALID,97.969,VALID,0.004,VALID,19.407,VALID,121.0,VALID,1.15,
2017-08-11, 01:41:07,VALID,917.708,VALID,0.0,VALID,98.041,VALID,0.019,VALID,19.419,VALID,124.0,VALID,1.11,
2017-08-11, 01:42:07,VALID,917.705,VALID,0.0,VALID,98.115,VALID,0.0,VALID,19.444,VALID,128.0,VALID,1.039,
2017-08-11, 01:43:07,VALID,917.711,VALID,0.0,VALID,98.211,VALID,-0.004,VALID,19.489,VALID,127.0,VALID,1.394,
2017-08-11, 01:44:07,VALID,917.691,VALID,0.0,VALID,98.329,VALID,-0.008,VALID,19.565,VALID,123.0,VALID,1.407,
2017-08-11, 01:45:07,VALID,917.695,VALID,0.0,VALID,98.343,VALID,-0.021,VALID,19.583,VALID,129.0,VALID,0.859,
2017-08-11, 01:46:07,VALID,917.686,VALID,0.0,VALID,98.306,VALID,-0.004,VALID,19.547,VALID,131.0,VALID,1.309,
2017-08-11, 01:47:07,VALID,917.668,VALID,0.0,VALID,98.324,VALID,-0.006,VALID,19.555,VALID,127.0,VALID,1.315,
2017-08-11, 01:48:07,VALID,917.651,VALID,0.0,VALID,98.354,VALID,0.011,VALID,19.573,VALID,122.0,VALID,1.583,
2017-08-11, 01:49:07,VALID,917.638,VALID,0.0,VALID,98.371,VALID,0.015,VALID,19.555,VALID,124.0,VALID,1.043,
2017-08-11, 01:50:07,VALID,917.616,VALID,0.0,VALID,98.363,VALID,0.002,VALID,19.527,VALID,123.0,VALID,1.067,
2017-08-11, 01:51:07,VALID,917.62,VALID,0.0,VALID,98.349,VALID,0.004,VALID,19.512,VALID,123.0,VALID,1.383,
2017-08-11, 01:52:07,VALID,917.616,VALID,0.0,VALID,98.369,VALID,0.014,VALID,19.503,VALID,120.0,VALID,1.305,
2017-08-11, 01:53:07,VALID,917.604,VALID,0.0,VALID,98.408,VALID,0.026,VALID,19.528,VALID,115.0,VALID,1.369,
2017-08-11, 01:54:07,VALID,917.606,VALID,0.0,VALID,98.419,VALID,0.018,VALID,19.511,VALID,118.0,VALID,1.211,
2017-08-11, 01:55:07,VALID,917.599,VALID,0.0,VALID,98.435,VALID,-0.003,VALID,19.501,VALID,109.0,VALID,1.162,
2017-08-11, 01:56:07,VALID,917.59,VALID,0.0,VALID,98.397,VALID,-0.009,VALID,19.454,VALID,103.0,VALID,0.965,
2017-08-11, 01:57:07,VALID,917.58,VALID,0.0,VALID,98.396,VALID,-0.013,VALID,19.435,VALID,99.0,VALID,1.036,
2017-08-11, 01:58:07,VALID,917.586,VALID,0.0,VALID,98.406,VALID,-0.006,VALID,19.419,VALID,88.0,VALID,0.772,
2017-08-11, 01:59:07,VALID,917.581,VALID,0.0,VALID,98.393,VALID,-0.015,VALID,19.374,VALID,89.0,VALID,0.708,
2017-08-11, 02:00:07,VALID,917.576,VALID,0.0,VALID,98.419,VALID,-0.015,VALID,19.375,VALID,91.0,VALID,0.834,
2017-08-11, 02:01:07,VALID,917.574,VALID,0.0,VALID,98.422,VALID,0.001,VALID,19.367,VALID,96.0,VALID,0.75,
2017-08-11, 02:02:07,VALID,917.567,VALID,0.0,VALID,98.435,VALID,-0.003,VALID,19.359,VALID,102.0,VALID,0.834,
2017-08-11, 02:03:07,VALID,917.555,VALID,0.0,VALID,98.435,VALID,-0.014,VALID,19.349,VALID,109.0,VALID,0.789,
2017-08-11, 02:04:07,VALID,917.558,VALID,0.0,VALID,98.409,VALID,-0.011,VALID,19.31,VALID,126.0,VALID,0.725,
2017-08-11, 02:05:07,VALID,917.542,VALID,0.0,VALID,98.329,VALID,-0.016,VALID,19.229,VALID,132.0,VALID,0.67,
2017-08-11, 02:06:07,VALID,917.526,VALID,0.0,VALID,98.366,VALID,-0.015,VALID,19.233,VALID,135.0,VALID,0.514,
2017-08-11, 02:07:07,VALID,917.517,VALID,0.0,VALID,98.398,VALID,-0.01,VALID,19.234,VALID,138.0,VALID,0.648,
2017-08-11, 02:08:07,VALID,917.504,VALID,0.0,VALID,98.455,VALID,-0.008,VALID,19.292,VALID,141.0,VALID,0.793,
2017-08-11, 02:09:07,VALID,917.495,VALID,0.0,VALID,98.483,VALID,-0.014,VALID,19.3,VALID,132.0,VALID,0.5,
2017-08-11, 02:10:07,VALID,917.488,VALID,0.0,VALID,98.469,VALID,0.009,VALID,19.276,VALID,138.0,VALID,0.489,
2017-08-11, 02:11:07,VALID,917.462,VALID,0.0,VALID,98.443,VALID,0.012,VALID,19.26,VALID,142.0,VALID,0.734,
2017-08-11, 02:12:07,VALID,917.459,VALID,0.0,VALID,98.471,VALID,0.013,VALID,19.276,VALID,137.0,VALID,0.667,
2017-08-11, 02:13:07,VALID,917.437,VALID,0.0,VALID,98.479,VALID,0.026,VALID,19.269,VALID,135.0,VALID,0.646,
2017-08-11, 02:14:07,VALID,917.435,VALID,0.0,VALID,98.462,VALID,0.001,VALID,19.237,VALID,123.0,VALID,0.458,
2017-08-11, 02:15:07,VALID,917.419,VALID,0.0,VALID,98.443,VALID,0.023,VALID,19.179,VALID,117.0,VALID,0.576,
2017-08-11, 02:16:07,VALID,917.4,VALID,0.0,VALID,98.348,VALID,0.009,VALID,19.067,VALID,105.0,VALID,0.453,
2017-08-11, 02:17:07,VALID,917.386,VALID,0.0,VALID,98.38,VALID,0.009,VALID,19.053,VALID,105.0,VALID,0.446,
2017-08-11, 02:18:07,VALID,917.369,VALID,0.0,VALID,98.416,VALID,0.012,VALID,19.075,VALID,110.0,VALID,0.338,
2017-08-11, 02:19:07,VALID,917.351,VALID,0.0,VALID,98.444,VALID,0.004,VALID,19.072,VALID,115.0,VALID,0.216,
2017-08-11, 02:20:07,VALID,917.34,VALID,0.0,VALID,98.444,VALID,0.004,VALID,19.071,VALID,135.0,VALID,0.306,
2017-08-11, 02:21:07,VALID,917.324,VALID,0.0,VALID,98.515,VALID,0.011,VALID,19.114,VALID,149.0,VALID,0.18,
2017-08-11, 02:22:07,VALID,917.311,VALID,0.0,VALID,98.494,VALID,0.005,VALID,19.114,VALID,172.0,VALID,0.028,
2017-08-11, 02:23:06,VALID,917.303,VALID,0.0,VALID,98.491,VALID,0.002,VALID,19.108,VALID,202.0,VALID,0.013,
2017-08-11, 02:24:06,VALID,917.3,VALID,0.0,VALID,98.513,VALID,0.017,VALID,19.1,VALID,202.0,VALID,0.14,
2017-08-11, 02:25:06,VALID,917.293,VALID,0.0,VALID,98.515,VALID,-0.006,VALID,19.102,VALID,190.0,VALID,0.254,
2017-08-11, 02:26:06,VALID,917.308,VALID,0.0,VALID,98.533,VALID,-0.014,VALID,19.11,VALID,171.0,VALID,0.205,
2017-08-11, 02:27:06,VALID,917.287,VALID,0.0,VALID,98.528,VALID,-0.015,VALID,19.122,VALID,147.0,VALID,0.306,
2017-08-11, 02:28:06,VALID,917.29,VALID,0.0,VALID,98.512,VALID,-0.013,VALID,19.089,VALID,123.0,VALID,0.31,
2017-08-11, 02:29:06,VALID,917.29,VALID,0.0,VALID,98.361,VALID,-0.009,VALID,18.919,VALID,118.0,VALID,0.25,
2017-08-11, 02:30:06,VALID,917.272,VALID,0.0,VALID,98.283,VALID,0.011,VALID,18.838,VALID,109.0,VALID,0.343,
2017-08-11, 02:31:06,VALID,917.253,VALID,0.0,VALID,98.291,VALID,-0.008,VALID,18.846,VALID,104.0,VALID,0.352,
2017-08-11, 02:32:06,VALID,917.226,VALID,0.0,VALID,98.395,VALID,-0.008,VALID,18.904,VALID,104.0,VALID,0.321,
2017-08-11, 02:33:06,VALID,917.198,VALID,0.0,VALID,98.433,VALID,-0.025,VALID,18.918,VALID,110.0,VALID,0.426,
2017-08-11, 02:34:06,VALID,917.169,VALID,0.0,VALID,98.435,VALID,-0.013,VALID,18.922,VALID,122.0,VALID,0.582,
2017-08-11, 02:35:06,VALID,917.154,VALID,0.0,VALID,98.381,VALID,-0.01,VALID,18.876,VALID,125.0,VALID,0.749,
2017-08-11, 02:36:06,VALID,917.147,VALID,0.0,VALID,98.363,VALID,-0.023,VALID,18.852,VALID,122.0,VALID,0.971,
2017-08-11, 02:37:06,VALID,917.146,VALID,0.0,VALID,98.312,VALID,-0.017,VALID,18.807,VALID,125.0,VALID,0.994,
2017-08-11, 02:38:06,VALID,917.15,VALID,0.0,VALID,98.293,VALID,-0.026,VALID,18.785,VALID,119.0,VALID,1.113,
2017-08-11, 02:39:06,VALID,917.144,VALID,0.0,VALID,98.309,VALID,-0.012,VALID,18.792,VALID,117.0,VALID,1.223,
2017-08-11, 02:40:06,VALID,917.145,VALID,0.0,VALID,98.33,VALID,0.005,VALID,18.804,VALID,120.0,VALID,1.131,
2017-08-11, 02:41:06,VALID,917.137,VALID,0.0,VALID,98.289,VALID,0.021,VALID,18.806,VALID,119.0,VALID,1.177,
2017-08-11, 02:42:06,VALID,917.127,VALID,0.0,VALID,98.245,VALID,-0.009,VALID,18.779,VALID,126.0,VALID,1.124,
2017-08-11, 02:43:06,VALID,917.116,VALID,0.0,VALID,98.191,VALID,0.006,VALID,18.778,VALID,122.0,VALID,0.993,
2017-08-11, 02:44:06,VALID,917.107,VALID,0.0,VALID,98.187,VALID,0.003,VALID,18.783,VALID,133.0,VALID,0.848,
2017-08-11, 02:45:06,VALID,917.108,VALID,0.0,VALID,98.182,VALID,-0.004,VALID,18.815,VALID,141.0,VALID,0.836,
2017-08-11, 02:46:06,VALID,917.096,VALID,0.0,VALID,98.302,VALID,0.007,VALID,18.903,VALID,136.0,VALID,0.787,
2017-08-11, 02:47:06,VALID,917.095,VALID,0.0,VALID,98.355,VALID,0.006,VALID,18.948,VALID,126.0,VALID,0.805,
2017-08-11, 02:48:06,VALID,917.087,VALID,0.0,VALID,98.342,VALID,-0.002,VALID,18.939,VALID,127.0,VALID,0.887,
2017-08-11, 02:49:06,VALID,917.084,VALID,0.0,VALID,98.28,VALID,0.003,VALID,18.901,VALID,129.0,VALID,0.87,
2017-08-11, 02:50:06,VALID,917.081,VALID,0.0,VALID,98.342,VALID,0.011,VALID,18.941,VALID,122.0,VALID,0.922,
2017-08-11, 02:51:06,VALID,917.101,VALID,0.0,VALID,98.39,VALID,-0.003,VALID,18.961,VALID,119.0,VALID,0.944,
2017-08-11, 02:52:06,VALID,917.097,VALID,0.0,VALID,98.415,VALID,-0.001,VALID,18.979,VALID,120.0,VALID,1.025,
2017-08-11, 02:53:06,VALID,917.099,VALID,0.0,VALID,98.447,VALID,0.021,VALID,19.013,VALID,120.0,VALID,1.241,
2017-08-11, 02:54:06,VALID,917.086,VALID,0.0,VALID,98.469,VALID,0.016,VALID,19.038,VALID,131.0,VALID,0.916,
2017-08-11, 02:55:06,VALID,917.077,VALID,0.0,VALID,98.479,VALID,-0.002,VALID,19.038,VALID,127.0,VALID,0.987,
2017-08-11, 02:56:06,VALID,917.072,VALID,0.0,VALID,98.506,VALID,-0.002,VALID,19.084,VALID,133.0,VALID,0.863,
2017-08-11, 02:57:06,VALID,917.075,VALID,0.0,VALID,98.543,VALID,-0.019,VALID,19.124,VALID,139.0,VALID,0.88,
2017-08-11, 02:58:06,VALID,917.084,VALID,0.0,VALID,98.602,VALID,0.001,VALID,19.2,VALID,146.0,VALID,1.097,
2017-08-11, 02:59:06,VALID,917.086,VALID,0.0,VALID,98.618,VALID,-0.005,VALID,19.262,VALID,148.0,VALID,0.986,
2017-08-11, 03:00:06,VALID,917.096,VALID,0.0,VALID,98.639,VALID,-0.005,VALID,19.316,VALID,153.0,VALID,1.236,
2017-08-11, 03:01:06,VALID,917.112,VALID,0.0,VALID,98.621,VALID,-0.005,VALID,19.331,VALID,155.0,VALID,1.026,
2017-08-11, 03:02:06,VALID,917.116,VALID,0.0,VALID,98.612,VALID,-0.003,VALID,19.318,VALID,161.0,VALID,0.897,
2017-08-11, 03:03:06,VALID,917.127,VALID,0.0,VALID,98.614,VALID,0.003,VALID,19.321,VALID,157.0,VALID,0.827,
2017-08-11, 03:04:06,VALID,917.139,VALID,0.0,VALID,98.62,VALID,-0.007,VALID,19.309,VALID,160.0,VALID,0.811,
2017-08-11, 03:05:06,VALID,917.154,VALID,0.0,VALID,98.596,VALID,0.012,VALID,19.299,VALID,159.0,VALID,1.123,
2017-08-11, 03:06:06,VALID,917.149,VALID,0.0,VALID,98.606,VALID,-0.01,VALID,19.309,VALID,163.0,VALID,1.011,
2017-08-11, 03:07:06,VALID,917.156,VALID,0.0,VALID,98.625,VALID,-0.013,VALID,19.32,VALID,146.0,VALID,0.92,
2017-08-11, 03:08:06,VALID,917.171,VALID,0.0,VALID,98.614,VALID,-0.005,VALID,19.313,VALID,164.0,VALID,1.463,
2017-08-11, 03:09:06,VALID,917.189,VALID,0.0,VALID,98.635,VALID,-0.006,VALID,19.332,VALID,154.0,VALID,1.292,
2017-08-11, 03:10:06,VALID,917.189,VALID,0.0,VALID,98.634,VALID,-0.014,VALID,19.329,VALID,148.0,VALID,1.168,
2017-08-11, 03:11:06,VALID,917.202,VALID,0.0,VALID,98.622,VALID,-0.005,VALID,19.332,VALID,142.0,VALID,1.156,
2017-08-11, 03:12:06,VALID,917.236,VALID,0.0,VALID,98.624,VALID,-0.004,VALID,19.329,VALID,147.0,VALID,1.35,
2017-08-11, 03:13:06,VALID,917.244,VALID,0.0,VALID,98.617,VALID,0.018,VALID,19.338,VALID,145.0,VALID,1.088,
2017-08-11, 03:14:06,VALID,917.27,VALID,0.0,VALID,98.627,VALID,0.003,VALID,19.335,VALID,146.0,VALID,1.043,
2017-08-11, 03:15:06,VALID,917.29,VALID,0.0,VALID,98.638,VALID,-0.011,VALID,19.335,VALID,138.0,VALID,0.852,
2017-08-11, 03:16:06,VALID,917.31,VALID,0.0,VALID,98.639,VALID,-0.014,VALID,19.333,VALID,147.0,VALID,0.772,
2017-08-11, 03:17:06,VALID,917.305,VALID,0.0,VALID,98.625,VALID,0.001,VALID,19.334,VALID,164.0,VALID,0.6,
2017-08-11, 03:18:06,VALID,917.318,VALID,0.0,VALID,98.64,VALID,0.01,VALID,19.343,VALID,177.0,VALID,0.452,
2017-08-11, 03:19:06,VALID,917.31,VALID,0.0,VALID,98.627,VALID,0.002,VALID,19.344,VALID,175.0,VALID,0.283,
2017-08-11, 03:20:06,VALID,917.302,VALID,0.0,VALID,98.623,VALID,0.007,VALID,19.336,VALID,179.0,VALID,0.446,
2017-08-11, 03:21:06,VALID,917.291,VALID,0.0,VALID,98.618,VALID,-0.002,VALID,19.338,VALID,160.0,VALID,0.554,
2017-08-11, 03:22:06,VALID,917.266,VALID,0.0,VALID,98.614,VALID,0.001,VALID,19.35,VALID,156.0,VALID,0.388,
2017-08-11, 03:23:06,VALID,917.246,VALID,0.0,VALID,98.629,VALID,-0.01,VALID,19.367,VALID,165.0,VALID,0.136,
2017-08-11, 03:24:06,VALID,917.227,VALID,0.0,VALID,98.614,VALID,-0.0,VALID,19.377,VALID,192.0,VALID,0.179,
2017-08-11, 03:25:06,VALID,917.214,VALID,0.0,VALID,98.608,VALID,-0.012,VALID,19.381,VALID,177.0,VALID,0.145,
2017-08-11, 03:26:06,VALID,917.197,VALID,0.0,VALID,98.583,VALID,-0.024,VALID,19.365,VALID,170.0,VALID,0.092,
2017-08-11, 03:27:06,VALID,917.17,VALID,0.0,VALID,98.565,VALID,-0.011,VALID,19.345,VALID,170.0,VALID,0.186,
2017-08-11, 03:28:06,VALID,917.173,VALID,0.0,VALID,98.537,VALID,-0.022,VALID,19.327,VALID,166.0,VALID,0.204,
2017-08-11, 03:29:06,VALID,917.184,VALID,0.0,VALID,98.528,VALID,-0.032,VALID,19.316,VALID,167.0,VALID,0.216,
2017-08-11, 03:30:06,VALID,917.19,VALID,0.0,VALID,98.515,VALID,-0.034,VALID,19.312,VALID,164.0,VALID,0.396,
2017-08-11, 03:31:06,VALID,917.212,VALID,0.0,VALID,98.519,VALID,-0.012,VALID,19.307,VALID,166.0,VALID,0.269,
2017-08-11, 03:32:06,VALID,917.227,VALID,0.0,VALID,98.512,VALID,-0.0,VALID,19.302,VALID,175.0,VALID,0.067,
2017-08-11, 03:33:06,VALID,917.243,VALID,0.0,VALID,98.503,VALID,-0.02,VALID,19.308,VALID,175.0,VALID,0.014,
2017-08-11, 03:34:06,VALID,917.255,VALID,0.0,VALID,98.499,VALID,-0.003,VALID,19.31,VALID,175.0,VALID,0.001,
2017-08-11, 03:35:06,VALID,917.247,VALID,0.0,VALID,98.503,VALID,-0.019,VALID,19.304,VALID,175.0,VALID,0.0,
2017-08-11, 03:36:06,VALID,917.24,VALID,0.0,VALID,98.477,VALID,-0.027,VALID,19.296,VALID,175.0,VALID,0.0,
2017-08-11, 03:37:06,VALID,917.248,VALID,0.0,VALID,98.469,VALID,-0.017,VALID,19.295,VALID,137.0,VALID,0.035,
2017-08-11, 03:38:06,VALID,917.239,VALID,0.0,VALID,98.434,VALID,-0.025,VALID,19.245,VALID,72.0,VALID,0.077,